Terug naar catalogus

SCOUT X-4 R/B

ActiefLEO
NORAD 1739·ROCKET BODY·🇺🇸 United States

Gelanceerd Nov 19, 1965 vanaf Wallops Flight Facility

Loading…

Volgende Passages (komende 24 uur)

TLE

VersSource: Space-Track

Epoch: Sep 14, 2026, 13:09 UTC

1 01739U 65093B   26257.54811362  .00000297  00000-0  10222-3 0  9993
2 01739  59.7021 264.6614 0077210 350.3288   9.6265 14.55308260183331

Volg SCOUT X-4 R/B in realtime met AllMySat

Download on the App Store